www.pogodaiklimat.ru
ПОГОДА в Стерджен Бэй
Время
и дата
22:56 23.01
23:56 23.01
00:56 24.01
01:56 24.01
02:04 24.01
02:32 24.01
02:50 24.01
02:56 24.01
03:56 24.01
04:08 24.01
04:56 24.01
05:11 24.01
05:38 24.01
05:56 24.01
06:31 24.01
06:48 24.01
06:56 24.01
07:20 24.01
07:40 24.01
07:56 24.01
08:11 24.01
08:56 24.01
09:12 24.01
09:46 24.01
09:56 24.01
10:24 24.01
10:56 24.01
11:56 24.01
12:15 24.01
12:28 24.01
12:56 24.01
13:28 24.01
13:56 24.01
14:45 24.01
14:56 24.01
15:56 24.01
16:56 24.01
17:56 24.01
18:56 24.01
19:56 24.01
20:56 24.01
21:56 24.01
22:56 24.01
23:56 24.01
00:56 25.01
01:56 25.01
02:56 25.01
03:56 25.01
Ветер
(напр.,м/с)
Видим. Явления Облачность Т
(С)
Тd
(С)
f
(%)
Тe
(С)
Тes
(С)
Комфортность P
(гПа)
Po
(гПа)
Тmin
(С)
Tmax
(С)
R
(мм)
R24
(мм)
S
(см)
ЮЗ 1 16 км 10/0 2550 м
[Ac]
-7.2 -13.9 59 -11 -11 1025.0 997.0
Ю 1 16 км 10/10 1950 м -6.7 -13.9 57 -11 -11 1024.5 996.4 -9.4 -6.7
ЮЗ 1 16 км 10/10 1080 м -5.6 -12.8 57 -9 -9 1023.8 996.0
штиль 0 8 км слабый снег 10/10 870 м -6.1 -10.6 70 -7 -7
штиль 0 4 км слабый снег 10/10 1050 м -6.0 -10.0 73 -7 -7 995.7
штиль 0 5 км слабый снег, дымка 10/10 570 м -7.0 -9.0 86 -8 -8 995.4
ЮВ 1 4 км слабый снег, дымка 10/10 720 м -7.0 -8.0 93 -12 -12 995.1
ЮВ 1 5 км слабый снег, дымка 10/10 720 м -6.7 -8.3 88 -11 -11 1022.8 995.1
ЮВ 1 4 км слабый снег, дымка 10/10 540 м -6.1 -7.2 92 -12 -12 1021.9 994.1
ЮВ 1 6 км слабый снег, дымка 10/10 480 м -6.0 -7.0 93 -12 -12 994.1
ЮВ 1 5 км слабый снег, дымка 10/10 510 м -5.0 -6.7 88 -11 -11 1021.1 993.4
ЮВ 1 3 км слабый снег, дымка 10/10 510 м -5.0 -6.0 93 -9 -9 993.4
ЮВ 1 3 км слабый снег, дымка 10/10 510 м -4.0 -6.0 86 -8 -8 993.1
штиль 0 3 км слабый снег, дымка 10/10 450 м -4.4 -5.6 91 -6 -6 -6.7 -4.4 0.3
Ю 1 2 км слабый снег, дымка 10/10 630 м -3.0 -4.0 93 -8 -8 992.7
Ю 1 3 км слабый снег, дымка 10/10 420 м -3.0 -4.0 93 -8 -8 992.4
Ю 1 3 км слабый снег, дымка 10/10 420 м -3.3 -4.4 92 -9 -9 1020.2 992.4
Ю 2 2 км слабый снег, дымка 10/10 360 м -3.0 -4.0 93 -9 -9 992.4
Ю 2 4 км слабый снег, дымка 10/10 420 м -3.0 -3.0 100 -10 -10 992.1
Ю 2 3 км слабый снег, дымка 10/10 660 м -2.8 -3.3 96 -10 -10 1019.7 992.1
ЮЗ 2 2 км слабый снег, дымка 10/10 720 м -3.0 -3.0 100 -10 -10 991.8
ЮЗ 2 3 км слабый снег, дымка 10/10 210 м -2.2 -3.3 92 -9 -9 1019.3 991.8 0.3
ЮЗ 2 4 км слабый снег, дымка 10/10 210 м -2.0 -3.0 93 -9 -9 991.8
ЮЗ 1 2 км слабый снег, дымка 10/10 510 м -2.0 -3.0 93 -7 -7 991.4
ЮЗ 2 2 км слабый снег, дымка 10/10 510 м -1.1 -2.8 88 -7 -7 1018.9 991.4
ЮЗ 2 3 км слабый снег, дымка 10/10 240 м -1.0 -3.0 86 -7 -7 991.4
ЮЗ 2 11 км слабый снег 10/10 240 м -1.1 -2.8 88 -7 -7 1018.5 991.1
З 2 10 км слабый снег 10/10 330 м -1.1 -3.9 81 -7 -7 1017.7 990.4 -3.3 -1.1 0.3
З 3 13 км слабый снег 10/10 390 м -2.0 -4.0 86 -9 -9 990.1
З 2 14 км слабый снег 10/10 390 м -2.0 -4.0 86 -9 -9 990.1
З 2 14 км слабый снег 10/10 390 м -1.7 -3.9 85 -8 -8 1017.2 989.8
З 2 14 км слабый снег 10/10 390 м -2.0 -4.0 86 -8 -8 989.8
З 2 16 км 10/10 390 м -1.7 -4.4 82 -7 -7 1017.4 990.1
З 1 16 км 10/10 390 м -2.0 -5.0 80 -7 -7 990.4
З 1 16 км 10/10 390 м -1.1 -4.4 78 -6 -6 1017.7 990.1
З 2 16 км ясно -2.2 -6.1 75 -8 -7 1018.1 990.8
З 1 16 км ясно -4.4 -7.2 81 -9 -8 1018.7 991.1
З 1 16 км ясно -5.6 -7.8 84 -11 -11 1019.5 991.8 -5.6 -1.1
16 км ясно -6.1 -7.8 88 -7 -7 1019.4 991.8
ЮЗ 1 16 км ясно -6.7 -8.3 88 -12 -12 1019.9 992.4
З 1 16 км ясно -8.3 -10.0 88 -13 -13
З 1 16 км ясно -8.9 -11.1 84 -13 -13 1020.7 993.1
ЮЗ 1 16 км ясно -10.6 -12.2 88 -15 -15 1021.0 993.4
штиль 0 16 км ясно -12.2 -13.3 91 -12 -12 1021.6 993.7 -12.2 -5.6
С 1 16 км ясно -10.0 -12.2 84 -16 -16 1021.6 993.7
С 2 16 км ясно -8.9 -12.8 73 -16 -16 1022.5 994.7
С 2 16 км ясно -9.4 -13.3 73 -16 -16 1023.0 995.4
С 2 16 км ясно -10.0 -13.9 73 -17 -17 1021.9 994.1
Местоположение метеостанции Door County Cherryland Airport: широта 44.8500 долгота -87.4167 высота над уровнем моря 221 м.
В архиве по умолчанию представлена погода в Стерджен Бэй за последние 1-2 суток. Обновление информации о фактической погоде в базе происходит ежечасно! Архивные данные за месяц целиком и за предыдущие месяцы Вы можете получить, выбрав интересующий диапазон дат из раскрывающегося списка и нажав кнопку "Ввод!".
Внимание! Архив погоды МЕТАР в базе сайта по станциям, не включенным в климатический монитор, хранится не более 60 дней. Нет смысла пытаться выбрать более раннюю дату.
*Определитесь, кто Вы:
Внимание! Время в таблицах - местное (без учета летнего времени). Для получения всемирного времени необходимо вычесть поправку, которая равна -6 ч.
Смотрите также архив погоды в соседних городах и на ближайших метеорологических станциях:
Партнеры нашего сайта:      
Пояснения к столбцам:
  • Ветер - указаны скорость ветра в м/с - средняя за 10 мин, порывы в срок и между сроками (в фигурных скобках) и направление, откуда дует ветер: С - северный,
  • СВ - северо-восточный, В - восточный, ЮВ - юго-восточный, Ю - южный, ЮЗ - юго-западный, З - западный, СЗ - северо-западный.
  • Видимость - горизонтальная дальность видимости в метрах или километрах. При видимости от 1 до 10 км при отсутствии осадков обычно наблюдается дымка, при ухудшении видимости до 1 км и менее - туман. В сухую погоду видимость может ухудшаться дымом, пылью или мглою.
  • Явления - указаны атмосферные явления, наблюдавшиеся в срок или в последний час перед сроком; фигурными скобками обозначены явления, наблюдавшиеся между сроками (за 1-3 часа до срока); квадратными скобками обозначены град или гололедные отложения с указанием их диаметра в мм.
  • Облачность - указаны через наклонную черту общая и нижняя облачность в баллах и высота нижней границы облаков в метрах; квадратными скобками обозначены формы облаков: Ci - перистые, Cs - перисто-слоистые, Cc - перисто-кучевые, Ac - высококучевые, As - высокослоистые, Sc - слоисто-кучевые, Ns - слоисто-дождевые, Cu - кучевые, Cb - кучево-дождевые. Подробнее классификацию облаков см. в Атласе облаков (PDF).
  • T - Температура воздуха - температура, измеренная на высоте 2 м над землей.
  • Td - Температура точки росы - температура, при понижении до которой содержащийся в воздухе водяной пар достигнет насыщения.
  • f - Относительная влажность воздуха - влажноcть воздуха, измеренная на высоте 2 м над землей.
  • Te - Эффективная температура - температура, которую ощущает одетый по сезону человек в тени. Характеристика душности погоды. При расчете учитывается влияние влажности воздуха и скорости ветра на теплоощущения человека.
  • Tes - Эффективная температура на солнце - температура, которую ощущает человек, с поправкой на солнечный нагрев. Характеристика знойности погоды. Зависит от высоты солнца над горизонтом, облачности и скорости ветра. Ночью, в пасмурную погоду, а также при ветре 12 м/с и более поправка равна нулю.
  • P - Атмосферное давление - приведенное к уровню моря атмосферное давление.
  • Po - Атмосферное давление - измеренное на уровне метеостанции атмосферное давление.
  • Tmin - Минимальная температура - минимум температуры воздуха на высоте 2 м над землей.
  • Tmax - Максимальная температура - максимум температуры воздуха на высоте 2 м над землей.
  • R - Количество осадков - Количество выпавших осадков за период времени, мм. При наведении курсора мыши на число - период времени, за который выпало указанное количество осадков.
  • R24 - Количество осадков - Количество выпавших осадков за 24 часа, мм.
  • S - Снежный покров - Высота снежного покрова, см. При наведении курсора мыши на число - состояние снежного покрова и степень покрытия местности в баллах.